Regional Weather Roundup
Issued by NWS Sioux Falls, SD

Home | Current Version | Previous Version | Text Only | Print | Product List | Glossary Off
Versions: 1 2 3 4 5 6 7 8 9 10 11 12 13 14 15 16 17 18 19 20 21 22 23 24 25 26 27 28 29 30 31 32 33 34 35 36 37 38 39 40 41 42 43 44 45 46 47 48 49 50

000
ASUS43 KFSD 302002
RWRFSD

WEATHER ROUNDUP FOR SE SOUTH DAKOTA/SW MINNESOTA/NW IOWA
NATIONAL WEATHER SERVICE SIOUX FALLS SD
300 PM CDT THU OCT 30 2014

NOTE: "FAIR" INDICATES FEW OR NO CLOUDS BELOW 12,000 FEET WITH NO
SIGNIFICANT WEATHER AND OR OBSTRUCTIONS TO VISIBILITY.


SDZ038>040-050-052>070-302100-
SOUTHEAST SOUTH DAKOTA

CITY           SKY/WX    TMP DP  RH WIND       PRES   REMARKS
CHAMBERLAIN    PTSUNNY   45  34  65 N17G24    30.29S
HURON          CLOUDY    43  35  73 N22G28    30.28R
MADISON        CLOUDY    43  43 100 N21G28    30.19R
MITCHELL       CLOUDY    44  38  79 N22G32    30.26R
SIOUX FALLS    CLOUDY    50  42  74 N24G31    30.16R
WINNER         FAIR      52  32  46 N24       30.28S
YANKTON        MOSUNNY   50  37  62 NW24G33   30.20R
$$

MNZ071-072-080-081-089-090-097-098-302100-
SOUTHWEST MINNESOTA

CITY           SKY/WX    TMP DP  RH WIND       PRES   REMARKS
FAIRMONT       CLOUDY    55  25  30 N18       30.08R
JACKSON        CLOUDY    54  36  50 VRB15G22  30.10R
LUVERNE        PTSUNNY   55  36  47 N18       30.13R
MARSHALL       CLOUDY    45  36  70 N22       30.16R
MONTEVIDEO     CLOUDY    43  41  93 N20G25    30.20R
PIPESTONE      CLOUDY    48  37  66 N16G24    30.16R
REDWOOD FALLS  CLOUDY    48  39  71 N15G21    30.14R
TRACY          CLOUDY    47  40  75 N17       30.16R
WINDOM         PTSUNNY   52  37  58 N20       30.11R
WORTHINGTON    PTSUNNY   52  37  58 N20G25    30.12R
$$

IAZ001>003-012>014-020>022-031-032-NEZ013-014-SDZ071-302100-
NORTHWEST IOWA

CITY           SKY/WX    TMP DP  RH WIND       PRES   REMARKS
CHEROKEE       SUNNY     58  37  44 N18G24    30.07R
DENISON        SUNNY     61  39  44 NW20      30.03S
ESTHERVILLE    MOSUNNY   56  35  45 N21G28    30.06S
LE MARS        CLOUDY    57  41  54 NW18G26   30.11R
ORANGE CITY    PTSUNNY   59  36  41 N18G24    30.09R
SHELDON        CLOUDY    57  37  47 N15G24    30.09R
SIOUX CITY     MOSUNNY   57  40  52 NW24G31   30.10R
SPENCER        SUNNY     58  37  45 N18       30.07R
STORM LAKE     SUNNY     57  36  44 N16G24    30.06S
$$

ABBREVIATIONS USED IN REMARKS
   TC - TEMPERATURE IN CELSIUS
  WCI - WIND CHILL INDEX
   HX - HEAT INDEX
  VSB - VISIBILITY




USA.gov is the U.S. government's official web portal to all federal, state and local government web resources and services.